Prague, Czech Republic

1:16 PM CEST on April 22, 2018 (GMT +0200)
Ruzyne

Weather History for LKPR - October, 2013

Change the Weather History Date:

Sunday, October 13, 2013

  Actual Average Record
Temperature  
Mean Temperature 46 °F -  
Max Temperature 54 °F 50 °F 68 °F (2001)
Min Temperature 39 °F 36 °F 28 °F (2015)
Degree Days  
Heating Degree Days 18    
Moisture  
Dew Point 42 °F    
Average Humidity 86    
Maximum Humidity 100    
Minimum Humidity 60    
Precipitation  
Precipitation 0.00 in 0.04 in - ()
Sea Level Pressure  
Sea Level Pressure 30.12 in    
Wind  
Wind Speed 7 mph ()    
Max Wind Speed 17 mph    
Max Gust Speed -    
Visibility 4.8 miles    
Events      
Averages and records for this station are not official NWS values.
T = Trace of Precipitation, MM = Missing Value Source: Averaged Metar Reports

Daily Weather History Graph

Daily Weather History Graph

Search for Another Location

Airport or City:

Astronomy

Oct. 13, 2013 Rise Set
Actual Time 7:21 AM CEST 6:15 PM CEST
Civil Twilight 6:49 AM CEST 6:48 PM CEST
Nautical Twilight 6:11 AM CEST 7:25 PM CEST
Astronomical Twilight 5:33 AM CEST 8:03 PM CEST
Moon 3:24 PM CEST (10/13) 12:38 AM CEST (10/13)
Length of Visible Light 11h 59m
Length of Day
10h 53m
Waxing Gibbous, 66% of the Moon is Illuminated
Oct 13
Waxing Gibbous
Oct 19
Full
Oct 27
Last Quarter
Nov 3
New
Nov 10
First Quarter

Hourly Weather History & Observations

Time (CEST) Temp. Windchill Dew Point Humidity Pressure Visibility Wind Dir Wind Speed Gust Speed Precip Events Conditions
12:00 AM 46.4 °F 43.5 °F 46.4 °F 100% 30.04 in 3.7 mi SW 5.8 mph - N/A   Overcast
12:30 AM 46.4 °F 45.2 °F 46.4 °F 100% 30.04 in 3.7 mi WNW 3.5 mph - N/A   Overcast
1:00 AM 46.4 °F 44.3 °F 46.4 °F 100% 30.04 in 2.8 mi NW 4.6 mph - N/A   Overcast
1:05 AM 46.4 °F 43.5 °F 46.4 °F 100% 30.04 in 2.5 mi NW 5.8 mph - N/A   Overcast
1:30 AM 46.4 °F 43.5 °F 44.6 °F 93% 30.06 in 2.5 mi WNW 5.8 mph - N/A   Overcast
2:00 AM 46 °F - 45 °F 94% 30.10 in 3 mi West 4.5 mph - -   Mist
2:00 AM 46.4 °F 42.9 °F 44.6 °F 93% 30.06 in - West 6.9 mph - N/A   Overcast
2:30 AM 44.6 °F 40.7 °F 44.6 °F 100% 30.06 in 3.7 mi West 6.9 mph - N/A   Overcast
3:00 AM 44.6 °F 40.2 °F 42.8 °F 93% 30.06 in 3.7 mi WSW 8.1 mph - N/A   Overcast
3:30 AM 44.6 °F 39.2 °F 42.8 °F 93% 30.06 in 3.7 mi SW 10.4 mph - N/A   Overcast
4:00 AM 42.8 °F 37.5 °F 42.8 °F 100% 30.06 in 3.1 mi WSW 9.2 mph - N/A   Overcast
4:30 AM 42.8 °F 37.5 °F 41.0 °F 93% 30.06 in 3.1 mi SW 9.2 mph - N/A   Overcast
5:00 AM 42.8 °F 36.6 °F 41.0 °F 93% 30.06 in 2.5 mi SW 11.5 mph - N/A   Overcast
5:05 AM 42.8 °F 36.2 °F 41.0 °F 93% 30.06 in 1.9 mi SW 12.7 mph - N/A   Overcast
5:30 AM 41.0 °F 34.7 °F 41.0 °F 100% 30.06 in 1.9 mi SW 10.4 mph - N/A   Overcast
6:00 AM 41.0 °F 35.2 °F 41.0 °F 100% 30.06 in - WSW 9.2 mph - N/A   Overcast
6:30 AM 41.0 °F 34.3 °F 39.2 °F 93% 30.06 in 2.8 mi WSW 11.5 mph - N/A   Overcast
6:49 AM 41.0 °F 32.8 °F 39.2 °F 93% 30.09 in 3.7 mi SW 16.1 mph - N/A   Overcast
7:00 AM 41.0 °F 33.1 °F 39.2 °F 93% 30.09 in 2.2 mi WSW 15.0 mph - N/A   Overcast
7:06 AM 41.0 °F 33.5 °F 39.2 °F 93% 30.09 in 1.4 mi SW 13.8 mph - N/A   Overcast
7:27 AM 39.2 °F 30.5 °F 39.2 °F 100% 30.09 in 2.5 mi SW 16.1 mph - N/A   Overcast
7:30 AM 39.2 °F 30.8 °F 39.2 °F 100% 30.09 in - WSW 15.0 mph - N/A   Overcast
8:00 AM 39.2 °F 30.2 °F 39.2 °F 100% 30.12 in 3.1 mi SW 17.3 mph - N/A   Mostly Cloudy
8:11 AM 40 °F - 39 °F 97% 30.16 in 3 mi WSW 15.7 mph - -   Mist
8:13 AM 41.0 °F 33.5 °F 39.2 °F 93% 30.12 in 3.1 mi WSW 13.8 mph - N/A   Mostly Cloudy
8:30 AM 41.0 °F 35.8 °F 41.0 °F 100% 30.12 in 4.3 mi WSW 8.1 mph - N/A   Partly Cloudy
9:00 AM 41.0 °F 33.5 °F 41.0 °F 100% 30.12 in 5.0 mi SW 13.8 mph - N/A   Unknown
9:30 AM 42.8 °F 37.0 °F 41.0 °F 93% 30.12 in 5.6 mi SW 10.4 mph - N/A   Partly Cloudy
10:00 AM 46.4 °F 40.4 °F 41.0 °F 81% 30.12 in - SW 13.8 mph - N/A   Clear
10:21 AM 48.2 °F - 41.0 °F 76% 30.12 in - South 3.5 mph - N/A   Clear
10:30 AM 48.2 °F - 41.0 °F 76% 30.12 in 6.2 mi Variable 2.3 mph - N/A   Partly Cloudy
10:48 AM 48.2 °F - 42.8 °F 82% 30.15 in 6.2 mi WSW 11.5 mph - N/A   Partly Cloudy
11:00 AM 46.4 °F 41.9 °F 41.0 °F 81% 30.15 in 6.2 mi WSW 9.2 mph - N/A   Partly Cloudy
11:30 AM 46.4 °F 42.9 °F 41.0 °F 81% 30.15 in 6.2 mi WSW 6.9 mph - N/A   Partly Cloudy
12:00 PM 46.4 °F 43.5 °F 39.2 °F 76% 30.15 in 6.2 mi SW 5.8 mph - N/A   Partly Cloudy
12:30 PM 50.0 °F - 42.8 °F 76% 30.15 in 6.2 mi SW 4.6 mph - N/A   Partly Cloudy
1:00 PM 50.0 °F - 42.8 °F 76% 30.15 in 6.2 mi WSW 8.1 mph - N/A   Partly Cloudy
1:30 PM 51.8 °F - 42.8 °F 71% 30.15 in 6.2 mi WSW 9.2 mph - N/A   Partly Cloudy
2:00 PM 53 °F - 43 °F 60% 30.15 in 19 mi SW 11.2 mph - -   Partly Cloudy
2:00 PM 53.6 °F - 42.8 °F 67% 30.12 in 6.2 mi SW 10.4 mph - N/A   Partly Cloudy
2:30 PM 53.6 °F - 44.6 °F 72% 30.15 in 6.2 mi WSW 11.5 mph - N/A   Partly Cloudy
3:00 PM 51.8 °F - 42.8 °F 71% 30.15 in 6.2 mi WSW 11.5 mph - N/A   Scattered Clouds
3:30 PM 53.6 °F - 42.8 °F 67% 30.15 in 6.2 mi WSW 12.7 mph - N/A   Scattered Clouds
4:00 PM 53.6 °F - 42.8 °F 67% 30.15 in 6.2 mi SW 9.2 mph - N/A   Scattered Clouds
4:30 PM 53.6 °F - 42.8 °F 67% 30.15 in 6.2 mi SW 6.9 mph - N/A   Scattered Clouds
5:00 PM 53.6 °F - 42.8 °F 67% 30.15 in 6.2 mi WSW 9.2 mph - N/A   Partly Cloudy
5:30 PM 51.8 °F - 42.8 °F 71% 30.15 in 6.2 mi West 5.8 mph - N/A   Partly Cloudy
6:00 PM 50.0 °F - 42.8 °F 76% 30.15 in 6.2 mi WSW 3.5 mph - N/A   Partly Cloudy
6:30 PM 50.0 °F - 42.8 °F 76% 30.15 in 6.2 mi Variable 2.3 mph - N/A   Partly Cloudy
7:00 PM 48.2 °F - 41.0 °F 76% 30.15 in - West 2.3 mph - N/A   Clear
7:30 PM 48.2 °F - 41.0 °F 76% 30.15 in - WSW 2.3 mph - N/A   Clear
8:00 PM 47 °F - 41 °F 73% 30.20 in 31 mi SW 2.2 mph - -   Scattered Clouds
8:00 PM 46.4 °F 45.2 °F 41.0 °F 81% 30.15 in 6.2 mi WSW 3.5 mph - N/A   Partly Cloudy
8:30 PM 46.4 °F - 41.0 °F 81% 30.15 in - Variable 2.3 mph - N/A   Clear
9:00 PM 46.4 °F - 41.0 °F 81% 30.15 in - SSE 2.3 mph - N/A   Clear
9:30 PM 44.6 °F 42.2 °F 39.2 °F 81% 30.15 in - ESE 4.6 mph - N/A   Clear
10:00 PM 44.6 °F 42.2 °F 41.0 °F 87% 30.15 in - ESE 4.6 mph - N/A   Clear
10:30 PM 44.6 °F 43.1 °F 41.0 °F 87% 30.15 in - East 3.5 mph - N/A   Clear
11:00 PM 44.6 °F 43.1 °F 41.0 °F 87% 30.15 in - ESE 3.5 mph - N/A   Clear
11:30 PM 41.0 °F - 39.2 °F 93% 30.15 in - Variable 1.2 mph - N/A   Clear